Погода в Погаре

Россия / Брянская область     52°33′15″N   33°15′47″E
темп.,
°C
ветер,
м/с
пор.,
м/с
влажн.,
%
обл.,
%
осадки,
мм/ч
давл.,
гПа
погр.,
м
20 сентября, пн
пн2000:00+8всв4798100 0.0 1007193
03:00+9всв4898100 2.0 1006275
06:00+9всв2599100 5.3 1005276
09:00+8зюз4797100 13.6 1005319
12:00+9ю3694100 0.4 1006394
15:00+9ю3691100 0.6 1007471
18:00+8ююв3695100 0.5 1007370
21:00+8вюв3596100 0.8 1008312
21 сентября, вт
вт2100:00+8в2397100 0.6 1008250
03:00+8юз2497100 1.0 1008268
06:00+6юз4797100 0.9 1009330
09:00+6юз4796100 1.5 1009343
12:00+6юз4696100 0.7 1010375
15:00+6ююз3496100 1.1 1010308
18:00+7юз1297100 0.6 1010152
21:00+7сз3697100 1.1 1011350
22 сентября, ср
ср2200:00+6зсз5896100 0.3 1011439
03:00+6сз5897100 1.3 1011442
06:00+5сз4697100 0.6 1011317
09:00+6ссз3495100 0.9 1012304
12:00+8с237892 0.3 1012823
15:00+7с2491100 0.8 1012302
18:00+6зюз1295100 1.4 1012156
21:00+7юз1297100 2.3 1012149
23 сентября, чт
чт2300:00+7ссз2497100 0.2 1012237
03:00+7ссз3597100 0.7 1012287
06:00+7сз2497100 0.5 1012244
09:00+7сз3496100 0.9 1012258
12:00+8зсз2387100 0.3 1012418
15:00+7з4588100 0.4 1012483
18:00+7зюз368798 0.1 1012430
21:00+6юз4789100 0.1 1012734
24 сентября, пт
пт2400:00+6ююз4891100 0.1 1011653
03:00+6ю589384 0.2 1009397
06:00+4ю6139699 0.0 1007385
09:00+7ю81685100 0.0 1004583
12:00+6ю81694100 2.7 1001744
15:00+7ю81596100 7.7 999767
18:00+9зюз71395100 2.4 999724
21:00+9юз61296100 2.9 1000571